Regional Weather Roundup
Issued by NWS San Diego, CA

Home | Current Version | Previous Version | Text Only | Print | Product List | Glossary On
Versions: 1 2 3 4 5 6 7 8 9 10 11 12 13 14 15 16 17 18 19 20 21 22 23 24 25 26 27 28 29 30 31 32 33 34 35 36 37 38 39 40 41 42 43 44 45 46 47 48 49 50
000
ASUS46 KSGX 011111
RWRSGX

SAN DIEGO HOURLY WEATHER ROUNDUP
NATIONAL WEATHER SERVICE SAN DIEGO CA
300 AM PST SUN MAR 01 2015

NOTE: "FAIR" INDICATES FEW OR NO CLOUDS BELOW 12,000 FEET WITH NO
SIGNIFICANT WEATHER AND/OR OBSTRUCTIONS TO VISIBILITY.

CAZ042-043-060-061-PZZ750-775-011200-

GREATER SAN DIEGO AREA

CITY           SKY/WX    TMP DP  RH WIND       PRES   REMARKS
LINDBERGH FLD  CLOUDY    58  50  75 E6        29.93F
NATIONAL CITY    N/A     58  52  81 CALM      29.92F
CHULA VISTA      N/A     57  53  86 CALM      29.85F
IMPERIAL BEACH LGT RAIN  57  52  83 E5        29.92F
BROWN FIELD    CLOUDY    54  51  90 SE7       29.91F
MIRAMAR MCAS   CLOUDY    54  50  86 E5        29.91F
MONTGOMERY FLD CLOUDY    54  51  90 E5        29.92F

$$

NORTH SAN DIEGO COUNTY

CITY           SKY/WX    TMP DP  RH WIND       PRES   REMARKS
CAMP PENDLETON LGT RAIN  53  49  86 NW5       29.92F FOG
OCEANSIDE AP   CLOUDY    53  50  89 NW3       29.90F
OCEANSIDE HBR    N/A     55  52  90 N6        29.94F
VISTA            N/A     54  48  81 CALM      29.90F
CARLSBAD       CLOUDY    56  50  80 E3        29.90F
DEL MAR          N/A     55  52  88 CALM      29.93F
LA JOLLA SCRIP   N/A     56   2  11 CALM      29.89F
FALLBROOK        N/A     51  51 100 CALM      29.93F
ESCONDIDO        N/A     53  50  89 E2        29.93F
SAN MARCOS       N/A    N/A N/A N/A CALM      29.90F
POWAY            N/A     52  50  91 CALM      29.94F

$$

EAST SAN DIEGO COUNTY

CITY           SKY/WX    TMP DP  RH WIND       PRES   REMARKS
RAMONA         CLOUDY    49  47  93 NE3       29.91F
SANTEE LAKES     N/A     53  51  92 CALM      29.93F
LA MESA          N/A     53  51  91 CALM      29.87F
JAMUL            N/A     51  49  94 CALM      29.92F
DESCANSO N       N/A     43  41  94 CALM      29.84F
MT. LAGUNA OBS   N/A     33  33 100 SW12      29.50S WCI  24
CAMPO            N/A     46  44  93 CALM      29.88F

$$

ORANGE COUNTY AND THE LOS ANGELES BASIN

CITY           SKY/WX    TMP DP  RH WIND       PRES   REMARKS
JOHN WAYNE AP  MOCLDY    56  49  77 E5        29.92S
LAGUNA BEACH     N/A     52  50  93 N5        29.87F
LAKE FOREST FR   N/A     49  45  85 E2        29.82F
SANTA ANA        N/A     54  49  82 CALM      29.87F
HUNTINGTON BCH   N/A     51  50  95 CALM      29.93F
LOS ALAMITOS   FAIR      51  49  94 E5        29.91F
FULLERTON      PTCLDY    53  49  86 E6        29.91F
LONG BEACH     PTCLDY    53  49  86 CALM      29.92S
L.A. AP        MOCLDY    53  48  83 NE5       29.92S
L.A. DOWNTOWN  CLOUDY    54  47  77 E3        29.91F

$$

THE INLAND EMPIRE

CITY           SKY/WX    TMP DP  RH WIND       PRES   REMARKS
CORONA         LGT RAIN  49  49 100 CALM      29.93F
CHINO          LGT RAIN  51  48  89 CALM      29.94S
ONTARIO        LGT RAIN  50  47  89 W3        29.92S
RIVERSIDE AP   LGT RAIN  50  47  89 CALM      29.93S
RIV CYN CREST    N/A     50  50 100 W1          N/A
MORENO VALLEY    N/A     49  48  97 SE3       29.12F
MARCH ARB      LGT RAIN  48  48 100 SW3       29.91S FOG
HORSETHIEF CYN   N/A     47  44  89 CALM      29.91S
PERRIS           N/A     49  47  95 NW1         N/A
MENIFEE          N/A     50  49  95 W1        30.01F
HEMET EAST       N/A     46  41  84 CALM      29.94F
FRENCH VALLEY  CLOUDY    48  46  93 CALM      29.91F
TEMECULA         N/A     50  50  97 CALM      29.88F

$$

SAN BERNARDINO AND RIVERSIDE COUNTY MOUNTAINS

CITY           SKY/WX    TMP DP  RH WIND       PRES   REMARKS
BIG BEAR AP    MOCLDY    27  23  86 CALM      29.88F
ANGELUS OAKS     N/A     32  29  90 CALM      29.92F
PINE COVE        N/A     31  31  99 CALM      29.98S

$$

SOUTHERN DESERT INCLUDING THE COACHELLA VALLEY

CITY           SKY/WX    TMP DP  RH WIND       PRES   REMARKS
PALM SPRINGS   CLOUDY    57  40  52 N3        29.91R
THOUSAND PALMS   N/A     58  40  52 NW2       29.89R
PALM DESERT      N/A     56  44  64 CALM      27.22S
THERMAL        CLOUDY    54  40  59 CALM      29.88S
BLYTHE         CLOUDY    59  42  53 S8        29.90S
IMPERIAL AP    CLOUDY    58  43  57 SW5       29.89F
EL CENTRO NAS  CLOUDY    60  41  49 W9        29.89F
YUMA AZ        CLOUDY    61  39  44 NE5       29.91S

$$

UPPER DESERT

CITY           SKY/WX    TMP DP  RH WIND       PRES   REMARKS
VICTORVILLE AP   N/A     39  34  81 CALM      29.90F
HESPERIA         N/A     40  37  87 CALM      30.05F
APPLE VALLEY     N/A     43  35  72 N2        29.97F
PALMDALE       LGT RAIN  43  36  76 S5        29.91S
LANCASTER      MOCLDY    39  36  89 NW7       29.91F WCI  34
EDWARDS AFB    MOCLDY    41  36  84 S2        29.89S
DAGGETT        CLEAR     45  36  70 SW9       29.92S
29 PALMS N     CLOUDY    48  34  58 W9        29.96S
NEEDLES        CLOUDY    61  34  36 SW7       29.88R

$$

REGIONAL REPORTS

CITY           SKY/WX    TMP DP  RH WIND       PRES   REMARKS
SANTA BARBARA  CLOUDY    50  46  86 E5        29.90F
SANDBERG       CLOUDY    36  32  85 SE5       29.88F WCI  32
MT. WILSON       N/A     32  34 100 MISG        N/A
LAS VEGAS NV   MOCLDY    51  34  52 CALM      29.86S
PHOENIX AZ     CLOUDY    61  48  62 E7        29.90F
TIJUANA        SHOWER    54  50  87 NE7       29.94F
ENSENADA NW      N/A     58  32  36 E12       29.89F

$$

OFFSHORE ISLANDS

CITY           SKY/WX    TMP DP  RH WIND       PRES   REMARKS
CATALINA ARPT  MOCLDY    48  44  86 SW6       29.90F
SAN NICOLAS IS PTCLDY    32  32 100 W8        29.89F WCI  25

$$

MARINE AND OFFSHORE BUOY REPORTS

STATION/POSITION SKY/WX   TEMP    WIND        PRES    SWELL
                          AIR SEA DIR/SP/G            HT/PER/DIR
                          (F)     (DEG/KT/KT) (MB)    (FT/S/D)
TANNER BANKS               58 62  280/  8/ 10 1012.3F   5/310/ 9
S CLEMENTE BASIN           59 62  160/  6/  8 1012.5F   3/280/14
SAN NICOLAS IS.               60                N/A     3/260/13
SO. S. ROSA ISLA           54 59  180/  2/  4 1011.6F   5/ 9
W. S. BARBARA CH           55 60  140/  6/  8 1011.8F   7/300/ 9
S. MONICA BASIN            57 62  200/  4/  6 1012.8F   2/230/14
S PEDRO CHANNEL               61                N/A     2/250/14
DANA POINT                    61                N/A     2/200/13
CMP PENDLETON NS              62                N/A     2/230/13
OCEANSIDE OFFSHR              62                N/A     2/220/13
TORREY PINES OTR              62                N/A     2/250/14
LA JOLLA 1                 58 63  110/  5/  5 1013.4F
MISSION BAY BUOY              62                N/A     2/260/14
SAN DIEGO BAY                 65              1014.0F
POINT LOMA SOUTH              63                N/A     2/220/13

$$



USA.gov is the U.S. government's official web portal to all federal, state and local government web resources and services.